User: anonymous   Login
Location: Unspecified
(0.0000°N, 0.0000°E)
Time: 19:34:53
(UTC+00:00)
Language:

Astrid - Orbit

View from above orbital plane
View from above orbital plane
View from above satellite
View from above satellite

Ground track
Ground track

The orbit data is extracted from the following two-line orbital elements,

1 23464U 95002B   19341.49404693  .00000046  00000-0  34446-4 0  9997
2 23464  82.9264 341.5238 0039565 291.8159  67.8788 13.72582899245471
Epoch (UTC): 07 December 2019 11:51:25
Eccentricity: 0.0039565
inclination: 82.9264°
perigee height: 961 km
apogee height: 1019 km
right ascension of ascending node: 341.5238°
argument of perigee: 291.8159°
revolutions per day: 13.72582899
mean anomaly at epoch: 67.8788°
orbit number at epoch: 24547

The dashed part of the orbit path shows where the satellite is in the earth's shadow,  

DLR